Weather in Ural

Russia / Orenburg Oblast     51°10′16″N   57°25′14″E
temp.,
°C
wind,
m/s
gust,
m/s
humid.,
%
clouds,
%
prec.,
mm/h
press.,
hPa
HPBL,
m
2 march, tue
tue223:00−15w4798100 0.6 1020142
02:00−18w4899100 0.1 1020168
05:00−20w37100100 0.1 1021128
08:00−22wsw34100100 0.1 102197
11:00−20w5798100 0.1 1022314
14:00−16wsw5895100 0.0 1020383
17:00−13sw61092100 0.1 1018467
20:00−13sw41394100 0.0 1016460
3 march, wed
wed323:00−8sw71592100 0.2 1014673
02:00−6sw81593100 0.9 1010732
05:00−5sw81695100 1.9 1009813
08:00−3sw81595100 1.2 1007812
11:00−2sw91493100 2.3 1007873
14:00−1sw81294100 0.7 1006941
17:00−1sw71296100 1.5 1005816
20:00−1sw51197100 1.1 1005591
4 march, thu
thu423:00−2sw51097100 2.1 1005492
02:00−2w3698100 1.6 1005267
05:00−5wnw5896100 2.3 1006315
08:00−12w3698100 0.1 1008138
11:00−10w5895100 0.1 1011341
14:00−8w61092100 0.1 1013601
17:00−9w61092100 0.2 1014573
20:00−13wsw379684 0.1 1016125
5 march, fri
fri523:00−10sw5149492 0.3 1017591
02:00−6sw61494100 0.3 1015754
05:00−4sw91693100 0.6 1015868
08:00−6sw71789100 0.1 1015562
11:00−3sw9178591 0.1 1016802
14:00−2sw11188367 0.0 1016972
17:00−2sw10188379 0.0 1016906
20:00−3sw9178799 0.1 1016795
6 march, sat
sat623:00−3sw8178899 0.4 1017696
02:00−4sw81591100 0.3 1016522
05:00−4sw6149298 0.4 1016389
08:00−5ssw51295100 0.3 1016365
11:00−3ssw71394100 0.7 1015471
14:000sw91591100 0.1 1013772
17:00+1sw9178999 0.1 1012876
20:00−1sw8169183 0.0 1010744